{"data":{"norad_id":47854,"epoch":"2026-09-20T21:20:53.181024Z","epoch_age_seconds":51353,"freshness":"FRESH","line1":"1 47854U 21020A   26263.88950441  .00000023  00000+0  17327-3 0  9998","line2":"2 47854  63.4076  12.0502 0183230   0.7852 359.3427 13.45453227271341","mean_motion":13.45453227,"eccentricity":0.018323,"inclination_deg":63.4076,"raan_deg":12.0502,"arg_perigee_deg":0.7852,"mean_anomaly_deg":359.3427,"bstar":0.00017327,"rev_number":27134,"period_min":107.02713190638,"perigee_km":952.2131607162,"apogee_km":1225.8551142199,"semimajor_km":7467.171137468,"source":"CELESTRAK","updated_at":"2026-09-21T09:00:07.608248Z"}}